User: anonymous
Location: Unspecified
(0.0000°N, 0.0000°E)
Time: 17:57:05
(UTC+02:00)
Language:

SWIFT - Orbit

View from above orbital plane
View from above orbital plane
View from above satellite
View from above satellite

Ground track
Ground track

The orbit data is extracted from the following two-line orbital elements,

1 28485U 04047A   14205.53025268  .00001348  00000-0  73768-4 0  7332
2 28485 020.5573 318.0817 0012172 217.6563 142.3018 14.99024001528804
Epoch (UTC): 24 July 2014 12:43:33
Eccentricity: 0.0012172
inclination: 20.5573°
perigee height: 561 km
apogee height: 578 km
right ascension of ascending node: 318.0817°
argument of perigee: 217.6563°
revolutions per day: 14.99024001
mean anomaly at epoch: 142.3018°
orbit number at epoch: 52880

The dashed part of the orbit path shows where the satellite is in the earth's shadow,  

DLR